Temp
75 79 73 74 74 74 74 74 74 74 75 75 75 75 75 75 75 75 76 76 76 77 77 77 77 77 77 76 75 75 74 74 74 74 75 75 76 77 76 75 75 81 75
77 79 73 74 74 74 74 74 74 75 75 75 75 75 75 75 75 75 75 76 77 78 77 77 77 77 76 75 75 74 74 73 73 73 74 75 75 75 76 75 74 79 75
77 78 78 73 74 74 75 75 75 75 76 76 76 76 76 76 75 75 75 75 76 77 77 77 77 76 75 74 74 74 73 73 73 73 73 83 81 75 76 75 74 74 75
77 78 79 73 74 75 75 75 75 75 75 75 75 75 76 75 75 75 74 74 75 76 77 77 76 75 74 73 73 73 73 72 72 72 83 81 80 76 76 75 74 74 74
75 76 74 72 72 73 73 73 73 73 73 73 74 74 75 75 74 74 73 73 74 75 76 76 75 74 73 72 72 72 72 72 71 76 81 79 81 77 76 75 75 74 74
73 73 71 70 71 72 72 72 72 72 72 72 73 73 74 74 74 73 73 73 74 74 75 74 74 73 72 71 71 71 71 70 71 79 80 78 79 74 76 75 74 73 73
72 72 72 69 70 72 72 72 72 71 71 72 72 72 73 73 73 72 72 72 73 73 73 72 72 72 71 71 71 70 70 70 79 80 80 79 79 73 75 76 74 73 73
70 69 70 70 70 71 71 70 70 70 70 70 71 71 71 71 71 71 71 71 71 70 70 70 69 69 69 69 69 69 68 69 77 78 78 79 73 72 75 75 74 73 72
68 69 71 72 72 69 68 68 68 68 68 68 68 68 68 68 69 69 69 69 69 69 69 68 68 67 67 67 67 66 67 68 78 78 79 79 70 72 74 75 74 73 72
69 69 69 70 70 70 70 66 66 66 66 66 66 65 65 66 67 67 68 68 68 67 67 66 65 65 65 65 65 64 65 69 76 78 79 75 71 73 74 75 75 73 72
66 67 68 68 68 68 69 68 66 65 64 64 65 63 65 69 69 70 66 65 65 65 65 64 63 63 63 63 63 63 66 74 74 75 78 66 69 73 74 74 73 73 72
65 65 68 67 67 67 68 65 65 66 66 66 65 65 66 66 66 67 64 62 62 62 62 62 61 63 66 70 71 67 72 70 73 73 75 64 67 71 73 73 73 73 73
67 66 66 65 66 66 64 65 65 65 65 64 64 64 63 64 64 65 66 66 65 62 66 65 66 66 64 66 67 66 67 68 70 71 68 63 66 69 72 72 72 73 73
66 66 65 66 64 64 65 66 65 65 64 64 64 63 63 63 62 62 63 63 63 63 62 63 64 62 63 63 63 64 64 66 68 70 67 62 65 69 70 71 72 72 72
65 65 64 64 63 63 63 64 64 64 64 63 63 62 63 62 60 61 60 62 62 63 62 62 61 62 61 62 62 62 62 63 64 68 68 61 62 64 66 68 68 69 70
66 64 63 63 63 63 63 63 62 63 62 63 62 61 60 61 59 59 59 59 59 61 59 59 59 60 60 60 60 60 61 63 64 64 67 65 59 60 61 63 64 66 67
66 64 62 62 63 63 63 62 63 63 62 62 61 60 59 60 58 58 57 57 58 58 58 59 59 60 60 61 59 60 62 63 63 63 65 65 65 59 58 59 61 62 63
66 63 63 64 61 61 62 62 63 62 62 61 61 60 58 58 58 58 58 57 57 58 59 59 58 59 59 59 59 60 61 62 62 62 63 63 63 64 61 57 57 59 60
65 63 62 62 61 61 61 61 61 59 61 60 60 60 57 57 57 57 57 56 56 57 56 57 57 56 57 58 59 59 60 60 60 62 60 60 59 61 62 58 56 56 57
64 63 62 62 60 59 59 59 59 59 59 60 59 58 56 56 55 55 55 54 56 56 55 55 54 56 55 56 59 57 58 59 60 59 58 59 59 58 58 58 59 60 55
62 62 61 59 58 59 59 58 57 56 57 57 58 56 55 54 54 54 54 54 54 53 52 52 54 54 54 55 59 58 57 58 57 58 59 58 57 57 56 57 56 57 59
61 61 61 61 59 60 61 61 60 57 57 57 56 55 54 54 54 53 52 52 52 52 51 51 52 53 53 53 53 56 56 56 59 58 57 57 54 56 55 55 54 55 57
60 60 60 61 59 60 59 58 56 55 54 53 53 53 53 52 52 52 51 51 50 51 50 50 50 50 50 51 51 51 52 50 49 57 55 55 52 53 54 53 54 55 55
59 60 60 59 58 57 58 58 55 56 53 54 52 52 51 51 50 50 50 50 49 50 48 49 49 48 49 46 50 50 49 48 45 46 52 50 50 50 50 51 53 54 54
59 58 57 57 57 57 58 58 57 55 53 52 51 49 49 49 50 49 49 48 48 48 47 47 46 46 46 45 45 47 46 49 46 45 43 45 46 47 48 48 50 52 53
54 54 55 56 55 54 55 55 55 52 50 49 48 48 48 48 48 47 47 46 46 46 46 45 44 43 43 43 43 43 42 42 41 40 39 41 40 44 46 48 49 50 50
MSLP
1012.31 1012.39 1012.97 1013.36 1013.59 1013.81 1014.05 1014.21 1014.25 1014.33 1014.32 1014.36 1014.42 1014.50 1014.73 1014.76 1014.85 1014.89 1015.00 1015.05 1015.19 1015.28 1015.35 1015.34 1015.52 1015.62 1015.65 1015.74 1015.83 1015.92 1016.04 1015.92 1015.89 1015.86 1015.82 1015.74 1015.64 1015.64 1015.50 1015.56 1015.52 1015.16 1015.36
1012.12 1012.41 1012.89 1013.19 1013.50 1013.85 1014.04 1014.09 1014.21 1014.38 1014.33 1014.52 1014.62 1014.74 1014.86 1014.96 1014.94 1015.06 1015.21 1015.15 1015.25 1015.24 1015.30 1015.39 1015.44 1015.58 1015.77 1015.84 1015.88 1016.07 1015.99 1015.95 1015.96 1015.96 1015.90 1015.67 1015.65 1015.61 1015.55 1015.66 1015.64 1015.37 1015.46
1012.14 1012.48 1012.95 1013.35 1013.62 1013.96 1014.16 1014.18 1014.31 1014.44 1014.52 1014.57 1014.62 1014.80 1014.89 1014.99 1015.11 1015.22 1015.27 1015.38 1015.38 1015.41 1015.44 1015.46 1015.49 1015.57 1015.70 1015.85 1015.96 1016.06 1016.08 1016.09 1016.09 1015.99 1015.83 1015.35 1015.36 1015.55 1015.53 1015.68 1015.76 1015.65 1015.53
1012.18 1012.59 1013.01 1013.38 1013.64 1013.95 1014.21 1014.44 1014.60 1014.67 1014.82 1014.70 1014.72 1014.89 1014.97 1015.02 1015.15 1015.38 1015.43 1015.46 1015.46 1015.36 1015.44 1015.53 1015.59 1015.64 1015.80 1015.89 1016.01 1016.07 1016.08 1016.09 1016.11 1016.00 1015.36 1015.34 1015.29 1015.44 1015.42 1015.56 1015.68 1015.65 1015.58
1012.50 1012.88 1013.32 1013.61 1013.85 1014.19 1014.46 1014.73 1014.91 1015.05 1015.12 1015.07 1015.02 1015.06 1015.15 1015.24 1015.39 1015.55 1015.55 1015.57 1015.63 1015.51 1015.52 1015.58 1015.67 1015.77 1015.86 1015.98 1016.09 1016.07 1016.08 1016.07 1015.98 1015.63 1015.41 1015.44 1015.21 1015.30 1015.39 1015.53 1015.60 1015.61 1015.60
1012.86 1013.18 1013.60 1013.88 1014.13 1014.49 1014.81 1014.99 1015.09 1015.16 1015.28 1015.27 1015.26 1015.28 1015.23 1015.32 1015.61 1015.67 1015.65 1015.71 1015.76 1015.84 1015.72 1015.68 1015.76 1015.80 1015.88 1015.95 1016.06 1016.04 1016.03 1015.97 1015.88 1015.51 1015.52 1015.57 1015.40 1015.58 1015.44 1015.45 1015.62 1015.72 1015.72
1012.99 1013.27 1013.68 1014.03 1014.33 1014.61 1014.84 1014.98 1015.18 1015.29 1015.41 1015.46 1015.46 1015.46 1015.47 1015.43 1015.87 1015.80 1015.79 1015.98 1016.07 1016.18 1016.19 1015.95 1015.83 1015.88 1015.86 1015.93 1016.00 1016.04 1015.99 1015.90 1015.49 1015.37 1015.42 1015.44 1015.37 1015.58 1015.45 1015.39 1015.55 1015.68 1015.72
1013.13 1013.55 1013.87 1014.21 1014.43 1014.56 1014.81 1015.10 1015.23 1015.39 1015.48 1015.59 1015.78 1015.86 1015.93 1015.85 1016.07 1016.00 1016.02 1016.29 1016.40 1016.46 1016.64 1016.52 1016.17 1016.10 1016.16 1016.15 1016.06 1016.07 1015.99 1015.94 1015.46 1015.32 1015.36 1015.25 1015.51 1015.49 1015.32 1015.29 1015.31 1015.50 1015.64
1013.32 1013.63 1013.97 1014.23 1014.52 1014.83 1015.10 1015.29 1015.46 1015.72 1015.87 1015.88 1016.05 1016.25 1016.41 1016.49 1016.52 1016.47 1016.56 1016.55 1016.65 1016.65 1016.80 1016.84 1016.70 1016.53 1016.47 1016.42 1016.45 1016.37 1016.25 1016.14 1015.56 1015.49 1015.41 1015.24 1015.64 1015.45 1015.19 1015.12 1015.17 1015.34 1015.48
1013.61 1013.81 1014.07 1014.38 1014.69 1015.15 1015.47 1015.64 1015.72 1015.83 1016.08 1016.21 1016.32 1016.54 1016.83 1016.88 1016.84 1016.98 1016.97 1016.94 1017.02 1017.01 1017.13 1017.17 1017.15 1016.95 1016.83 1016.69 1016.70 1016.59 1016.40 1016.21 1016.06 1015.83 1015.51 1015.95 1015.78 1015.41 1015.13 1015.04 1015.06 1015.18 1015.34
1013.83 1014.13 1014.48 1014.74 1015.06 1015.33 1015.62 1015.96 1016.14 1016.22 1016.21 1016.46 1016.73 1016.92 1016.87 1017.15 1017.08 1016.88 1017.59 1017.34 1017.38 1017.45 1017.47 1017.42 1017.29 1017.23 1016.94 1016.90 1016.91 1016.86 1016.38 1016.29 1016.25 1016.25 1015.89 1016.63 1016.13 1015.58 1015.21 1015.08 1015.02 1014.97 1015.14
1013.47 1013.98 1014.44 1014.79 1015.15 1015.55 1016.02 1016.45 1016.61 1016.75 1016.70 1016.40 1016.79 1017.32 1017.28 1017.42 1017.57 1017.52 1017.85 1017.78 1017.74 1017.96 1017.87 1017.69 1017.64 1017.29 1016.95 1016.76 1016.74 1016.91 1016.61 1016.70 1016.43 1016.43 1016.28 1016.74 1016.32 1015.80 1015.42 1015.11 1014.96 1014.69 1014.82
1013.22 1013.91 1014.26 1014.75 1015.24 1015.52 1015.99 1016.41 1016.62 1016.76 1016.98 1017.25 1017.07 1017.14 1017.58 1017.78 1017.98 1017.98 1018.00 1018.03 1017.92 1018.07 1018.12 1017.93 1017.80 1017.71 1017.63 1017.32 1017.15 1017.24 1017.11 1016.97 1016.94 1016.75 1017.02 1016.92 1016.46 1015.92 1015.52 1015.25 1015.00 1014.82 1014.83
1013.13 1013.69 1014.33 1014.94 1015.50 1015.86 1016.04 1016.41 1016.66 1016.62 1017.01 1017.13 1017.40 1017.72 1017.51 1017.87 1018.18 1018.35 1018.42 1018.43 1018.40 1018.46 1018.58 1018.38 1018.17 1018.37 1018.03 1017.80 1017.87 1017.57 1017.58 1017.26 1017.18 1016.94 1017.23 1017.35 1016.56 1016.08 1015.82 1015.56 1015.39 1015.14 1014.86
1013.11 1013.72 1014.22 1014.83 1015.32 1015.73 1016.03 1016.39 1016.68 1016.91 1017.07 1017.50 1018.03 1018.11 1017.89 1018.07 1018.51 1018.63 1018.72 1018.64 1018.74 1018.69 1018.64 1018.61 1018.37 1018.35 1018.22 1018.08 1017.90 1018.03 1017.93 1017.87 1017.61 1017.34 1017.22 1017.65 1017.31 1016.93 1016.41 1016.23 1016.05 1015.66 1015.29
1012.61 1013.41 1014.13 1014.67 1015.09 1015.44 1015.85 1016.28 1016.65 1017.04 1017.27 1017.64 1018.00 1018.45 1018.74 1018.68 1018.99 1019.18 1019.25 1019.17 1019.23 1019.20 1019.04 1018.88 1018.59 1018.39 1018.43 1018.42 1018.11 1018.21 1018.09 1017.91 1017.92 1017.83 1017.59 1017.77 1017.96 1017.62 1017.37 1017.00 1016.63 1016.22 1015.92
1012.04 1013.12 1013.84 1014.41 1014.89 1015.28 1015.71 1016.31 1016.72 1017.23 1017.59 1018.06 1018.48 1018.82 1018.84 1019.05 1019.36 1019.46 1019.60 1019.55 1019.53 1019.59 1019.35 1019.01 1018.68 1018.64 1018.50 1018.38 1018.58 1018.20 1018.10 1018.08 1018.01 1018.03 1017.89 1017.74 1017.76 1018.05 1017.91 1017.75 1017.34 1016.91 1016.57
1011.61 1012.70 1013.61 1014.13 1014.81 1015.21 1015.71 1016.31 1016.86 1017.52 1017.93 1018.38 1018.83 1019.23 1019.28 1019.52 1019.59 1019.58 1019.67 1019.89 1019.91 1019.63 1019.55 1019.19 1018.93 1018.58 1018.70 1018.58 1018.54 1018.58 1018.43 1018.41 1018.55 1018.41 1018.49 1018.30 1018.10 1017.85 1017.74 1018.13 1017.95 1017.78 1017.31
1011.09 1012.05 1013.04 1013.92 1014.65 1015.15 1015.84 1016.43 1017.24 1017.86 1018.16 1018.77 1019.10 1019.49 1019.84 1019.92 1020.08 1020.07 1019.97 1020.12 1020.20 1020.00 1019.90 1019.72 1019.52 1019.23 1019.01 1018.81 1018.54 1018.71 1018.87 1018.81 1018.86 1018.89 1018.95 1018.90 1018.96 1018.81 1018.36 1018.06 1017.95 1017.95 1017.85
1010.98 1011.72 1012.55 1013.45 1014.28 1015.08 1016.06 1016.86 1017.57 1018.05 1018.64 1018.93 1019.35 1019.83 1020.18 1020.21 1020.29 1020.42 1020.50 1020.42 1020.22 1020.05 1020.14 1020.10 1019.90 1019.82 1019.71 1019.39 1018.95 1019.04 1019.17 1019.21 1019.22 1019.32 1019.30 1019.34 1019.37 1019.08 1018.98 1018.83 1018.12 1017.86 1018.16
1010.71 1011.36 1012.10 1013.05 1014.06 1014.76 1015.61 1016.37 1017.18 1017.87 1018.81 1019.29 1019.57 1019.94 1020.22 1020.59 1020.75 1020.75 1020.95 1020.91 1020.67 1020.51 1020.59 1020.47 1020.15 1019.93 1019.78 1019.80 1019.33 1019.25 1019.33 1019.48 1019.54 1019.58 1019.60 1019.68 1019.63 1019.61 1019.48 1019.03 1019.10 1018.58 1018.04
1009.82 1010.72 1011.61 1012.30 1013.42 1014.23 1015.05 1015.90 1016.62 1017.69 1018.69 1019.44 1020.02 1020.28 1020.58 1020.78 1020.82 1020.90 1020.84 1021.01 1021.15 1021.03 1021.09 1020.88 1020.55 1020.28 1020.28 1020.32 1019.78 1019.43 1019.04 1019.34 1019.32 1019.67 1019.78 1019.92 1020.18 1020.00 1019.88 1019.72 1019.64 1019.23 1018.81
1009.04 1009.85 1010.74 1011.75 1012.99 1013.91 1014.78 1015.87 1016.87 1017.90 1018.81 1019.43 1020.12 1020.51 1020.82 1021.00 1021.31 1021.49 1021.42 1021.44 1021.44 1021.39 1021.50 1021.41 1021.33 1020.91 1020.81 1020.90 1020.73 1020.31 1019.81 1019.64 1019.95 1019.70 1019.82 1020.08 1020.49 1020.28 1020.13 1020.21 1019.86 1019.60 1019.24
1008.65 1010.00 1010.95 1011.85 1012.82 1013.90 1014.62 1015.27 1015.97 1016.74 1017.90 1019.07 1019.88 1020.64 1021.08 1021.38 1021.46 1021.52 1021.59 1021.74 1022.04 1022.06 1021.93 1021.91 1021.93 1021.77 1021.58 1021.55 1021.54 1021.46 1021.42 1021.30 1020.80 1020.15 1020.07 1020.57 1020.89 1020.70 1020.70 1020.47 1020.10 1019.83 1019.64
1008.88 1009.67 1010.55 1011.74 1012.70 1013.49 1014.23 1014.99 1015.80 1016.82 1017.98 1019.25 1020.07 1020.75 1021.36 1021.62 1021.68 1021.93 1022.07 1022.26 1022.30 1022.27 1022.63 1022.53 1022.49 1022.62 1022.69 1022.64 1022.46 1022.34 1022.09 1021.72 1022.22 1021.88 1020.80 1020.65 1021.05 1021.05 1021.07 1020.82 1020.57 1020.14 1019.93
1009.37 1010.08 1010.77 1011.49 1012.38 1013.42 1014.16 1014.85 1015.46 1016.45 1017.70 1018.83 1019.70 1020.36 1021.14 1021.72 1021.78 1022.07 1022.17 1022.57 1022.84 1022.84 1023.04 1023.40 1023.58 1023.47 1023.20 1023.54 1023.46 1023.48 1023.09 1022.85 1022.92 1022.91 1022.53 1021.89 1021.41 1020.86 1020.86 1020.69 1020.48 1020.26 1020.16
Wind_Speed
8 12 11 10 10 11 11 11 11 11 12 13 14 13 13 12 11 9 8 10 11 10 10 9 8 7 7 7 7 6 5 5 5 5 5 5 5 5 2 4 3 4 5
13 12 12 12 11 10 11 12 12 12 13 13 13 13 12 11 11 10 8 8 8 9 8 7 8 7 6 7 6 5 4 4 5 5 6 3 3 5 3 2 3 5 3
14 13 13 12 12 11 11 12 12 12 12 12 12 11 11 11 12 10 9 7 7 7 7 8 8 9 6 5 5 4 4 4 5 5 4 3 4 5 3 1 2 2 3
13 13 13 12 12 12 11 11 10 12 12 11 11 11 9 11 11 9 9 7 5 5 6 7 8 7 6 5 4 4 4 4 5 5 2 4 5 6 5 2 1 1 2
11 11 11 12 12 11 11 11 11 11 11 11 12 11 9 9 9 8 8 6 5 5 5 6 6 6 5 5 4 5 5 5 6 4 6 5 5 6 5 2 3 3 1
11 10 11 11 11 12 13 13 12 12 10 9 10 11 11 10 9 9 8 7 6 6 6 6 4 4 4 4 3 4 4 4 3 4 4 5 5 8 8 3 3 3 3
11 11 10 11 12 13 14 13 12 11 10 10 11 11 11 13 11 11 10 8 9 9 9 7 5 4 4 3 3 4 3 3 4 4 4 4 5 7 8 5 4 4 4
11 9 9 11 11 12 13 12 12 12 12 13 12 13 14 15 12 14 15 15 15 14 14 14 14 14 13 11 8 6 5 4 1 4 5 4 6 9 9 8 5 5 5
11 11 9 10 12 13 12 12 12 12 12 13 14 14 15 14 14 15 15 15 14 14 14 14 14 14 14 15 15 13 10 10 5 4 5 4 8 9 9 8 5 6 6
10 9 10 9 10 10 10 13 13 14 14 14 15 15 14 15 15 15 12 15 15 14 14 14 14 13 13 14 14 12 9 7 8 7 5 9 13 9 8 8 6 7 7
8 9 8 9 9 10 10 11 13 14 15 15 13 13 11 7 9 12 13 15 14 14 13 13 13 13 10 10 13 11 7 5 6 5 5 16 16 14 12 11 8 8 9
13 11 10 9 10 9 7 8 8 8 7 9 9 8 7 8 8 10 12 14 15 12 13 13 13 11 9 6 5 6 5 5 4 4 5 14 15 14 13 13 14 8 10
14 10 10 10 9 10 8 6 4 4 5 6 9 9 8 6 6 5 4 5 5 9 6 7 7 6 8 6 5 5 6 5 4 4 8 14 14 13 13 14 13 14 8
14 13 11 10 9 9 7 6 6 6 6 6 7 8 7 5 6 6 5 5 6 5 5 6 5 6 7 8 7 6 7 5 4 4 7 15 14 15 16 16 16 15 14
15 13 13 12 11 10 10 7 6 7 6 7 6 6 6 7 6 5 5 5 5 4 5 4 5 6 6 7 7 7 8 8 7 5 5 17 19 20 20 20 19 18 19
16 15 14 13 12 12 10 10 8 7 8 7 7 7 8 7 6 6 6 6 5 5 5 4 5 5 5 5 6 7 7 7 9 8 6 8 17 21 22 21 21 21 21
16 16 15 14 13 13 13 10 8 7 8 7 7 8 9 8 8 7 6 6 5 4 5 5 5 5 5 5 7 7 7 8 8 9 8 7 7 15 21 22 20 21 22
17 17 15 12 14 14 13 10 8 8 7 8 7 7 9 9 8 7 6 6 5 5 5 5 6 6 5 5 5 6 6 7 9 10 9 9 9 8 11 21 19 21 21
18 18 17 15 15 14 13 10 9 10 8 7 7 7 9 9 8 7 6 6 5 6 6 6 7 7 6 5 5 6 6 7 7 8 10 11 12 11 9 13 16 19 21
17 18 17 14 16 15 11 10 8 8 8 7 8 8 9 8 9 7 6 7 6 6 6 6 7 7 8 5 4 5 5 6 6 7 8 8 10 11 12 12 11 10 17
17 18 19 18 17 14 12 12 10 9 8 8 8 11 10 8 8 8 6 6 6 7 7 6 5 8 8 7 0 4 4 2 7 5 6 7 10 11 12 10 9 8 8
20 20 20 20 19 15 12 10 8 11 8 8 8 9 9 9 8 8 7 7 7 6 8 9 8 4 6 9 4 1 1 4 1 3 4 7 11 8 10 12 10 11 10
22 21 21 20 20 16 16 12 11 10 10 8 8 8 8 10 9 9 9 8 8 7 7 8 8 9 5 7 11 4 1 2 5 2 3 6 12 7 8 10 10 11 11
17 17 18 18 19 16 18 15 19 12 12 8 8 8 8 9 10 10 10 9 8 7 8 8 8 8 6 6 3 6 6 4 3 4 1 4 9 7 10 8 9 9 12
17 18 16 18 18 17 17 16 14 14 9 10 9 12 10 9 10 10 10 9 9 7 9 9 9 9 7 6 5 4 4 3 5 3 5 7 7 6 9 5 8 9 10
14 15 16 18 17 17 16 17 17 18 16 13 12 10 8 7 8 9 10 9 9 8 9 8 9 9 7 6 5 5 4 3 4 4 4 9 11 4 9 6 6 7 8
Wind_Direction
144 132 127 125 123 124 129 129 128 125 123 122 124 123 123 121 119 120 114 132 136 131 129 122 119 109 99 88 79 72 64 48 34 16 6 352 347 336 356 19 347 355 7
139 137 133 129 122 123 125 123 121 124 121 124 122 120 121 127 125 122 109 104 115 128 127 136 137 118 96 84 77 68 56 39 24 9 356 346 356 338 304 355 9 28 357
133 132 133 123 121 121 119 115 116 115 118 120 121 128 128 129 118 114 116 101 93 115 116 105 109 95 92 84 77 66 39 25 20 7 354 346 349 334 312 11 357 19 360
130 132 138 130 128 126 120 115 107 110 110 102 94 95 106 111 112 124 119 110 111 94 94 106 102 95 84 76 70 57 38 24 14 351 350 355 345 348 302 190 209 351 13
116 121 118 112 114 115 114 110 111 118 122 123 126 129 115 116 109 112 107 106 110 107 102 103 101 101 94 77 64 61 39 20 8 329 358 349 344 12 332 234 213 203 228
118 118 114 111 112 121 127 126 122 120 118 118 124 126 125 117 111 106 95 90 86 83 88 93 94 93 90 87 76 78 65 41 314 15 4 0 338 354 334 246 238 250 238
132 125 125 123 131 134 131 123 116 110 103 102 101 94 96 108 97 88 77 68 65 62 55 54 49 50 55 47 44 50 39 20 346 352 340 337 340 336 335 287 220 230 228
132 121 135 135 137 127 123 118 112 105 98 94 89 88 89 89 85 83 79 76 74 70 60 55 57 53 44 34 25 23 19 352 320 341 331 328 347 323 323 324 216 220 219
132 139 137 134 126 115 111 101 96 97 97 94 90 86 83 81 76 78 78 79 74 69 63 57 54 53 53 48 36 19 23 27 15 15 354 1 358 322 313 316 243 222 222
143 139 134 132 131 126 113 103 105 105 102 98 93 89 84 79 79 72 71 68 67 64 61 55 49 49 49 46 37 33 23 26 11 0 21 18 353 338 320 314 295 231 222
142 140 138 135 131 125 116 109 109 107 102 94 90 90 90 85 81 79 67 68 65 62 56 52 49 41 42 47 37 27 26 28 14 11 22 4 2 3 357 350 308 244 223
161 154 152 144 139 128 112 107 102 99 90 100 101 89 88 87 79 81 75 68 63 51 52 47 37 38 31 30 25 15 22 11 19 7 31 4 0 3 6 2 347 268 220
165 162 159 151 145 136 126 123 115 104 96 88 92 105 97 90 77 71 73 59 59 50 34 36 31 33 35 29 34 27 18 15 12 12 25 10 9 9 11 10 9 15 331
173 166 158 155 145 137 130 122 121 113 111 104 104 106 103 97 89 82 72 65 56 47 42 40 43 30 37 40 30 33 28 27 19 32 46 24 34 40 33 29 19 14 8
178 169 166 158 151 143 133 130 120 113 102 103 95 89 102 102 94 89 82 77 69 64 56 50 48 37 35 37 45 32 31 29 32 39 69 47 47 41 40 39 29 26 22
177 173 164 160 153 147 141 138 127 118 114 110 109 100 88 90 91 87 79 70 63 47 49 46 45 45 42 37 58 50 52 56 53 53 58 68 50 44 40 35 33 31 27
177 165 166 158 153 150 144 136 129 125 118 110 105 103 102 97 97 95 86 78 66 52 53 51 52 48 46 53 47 67 77 73 74 65 57 52 43 47 37 32 33 32 27
170 170 162 157 157 151 145 140 133 128 119 115 113 108 103 101 103 98 89 71 57 63 45 44 31 41 41 42 58 67 72 71 74 65 57 45 37 27 35 28 30 28 23
171 165 163 161 158 150 144 136 132 129 122 118 116 111 103 98 90 85 84 78 64 58 49 34 37 25 30 39 73 97 81 75 68 62 55 47 35 25 16 25 25 29 23
173 167 163 162 155 149 141 133 129 124 121 123 117 109 108 99 95 92 86 82 73 68 59 52 45 41 26 24 82 96 110 77 70 62 54 42 32 25 19 14 15 15 20
173 170 169 161 159 153 153 150 145 139 133 123 118 117 112 105 93 91 84 78 71 68 63 51 61 50 42 23 126 111 130 107 61 63 44 38 26 20 18 21 8 6 7
177 177 173 168 165 165 160 157 150 143 133 125 120 113 109 104 100 96 92 77 66 74 61 52 48 50 51 31 30 349 140 161 21 65 35 27 20 12 13 13 13 11 10
183 180 176 169 167 166 160 145 130 125 129 134 132 121 108 103 95 85 79 77 76 69 65 61 54 50 56 51 39 21 359 18 334 4 28 24 9 12 8 2 10 4 3
183 174 173 170 169 163 162 157 157 155 152 146 136 124 113 104 100 95 91 84 75 71 73 67 59 60 55 50 51 41 35 22 352 311 355 28 357 1 3 1 360 1 356
176 173 165 165 169 163 165 161 159 154 137 138 133 127 118 109 102 93 88 84 81 80 74 71 69 62 57 60 51 22 37 84 44 323 307 336 339 3 355 346 354 353 356
163 162 167 166 164 162 162 163 161 151 147 146 144 138 131 124 114 104 100 90 86 87 81 73 66 63 72 71 65 58 54 38 30 11 321 330 326 328 325 348 344 352 358